| time (UTC) | temp F | wind direction | speed MPH | gust MPH | rain 1hr in | rain 24hr in | rain mn in | humidity % | barometer mb |
| 20260508050029 | 60 | 26 | 2.0 | 6.0 | 0.00 | 0.00 | 0.00 | 33 | 1018.1 |
| 20260508043030 | 59 | 20 | 0.0 | 8.0 | 0.00 | 0.00 | 0.00 | 31 | 1018.1 |
| 20260508041531 | 59 | 19 | 0.0 | 3.0 | 0.00 | 0.00 | 0.00 | 30 | 1018.0 |
| 20260508040147 | 60 | 310 | 0.0 | 3.0 | 0.00 | 0.00 | 0.00 | 27 | 1017.7 |
| 20260508033031 | 62 | 18 | 2.0 | 8.0 | 0.00 | 0.00 | 0.00 | 24 | 1017.3 |
| 20260508030033 | 64 | 26 | 1.0 | 11.0 | 0.00 | 0.00 | 0.00 | 23 | 1017.3 |
| 20260508024530 | 67 | 34 | 2.0 | 7.0 | 0.00 | 0.00 | 0.00 | 22 | 1017.1 |
| 20260508021608 | 68 | 46 | 2.0 | 5.0 | 0.00 | 0.00 | 0.00 | 22 | 1016.9 |
| 20260508020028 | 68 | 40 | 2.0 | 6.0 | 0.00 | 0.00 | 0.00 | 22 | 1017.0 |
| 20260508014532 | 68 | 36 | 2.0 | 6.0 | 0.00 | 0.00 | 0.00 | 22 | 1017.1 |
| 20260508011529 | 70 | 36 | 2.0 | 12.0 | 0.00 | 0.00 | 0.00 | 22 | 1017.3 |
| 20260508010033 | 71 | 37 | 2.0 | 6.0 | 0.00 | 0.00 | 0.00 | 22 | 1017.3 |
| 20260508004528 | 72 | 48 | 3.0 | 9.0 | 0.00 | 0.00 | 0.00 | 22 | 1017.3 |
| 20260508003028 | 72 | 49 | 2.0 | 8.0 | 0.00 | 0.00 | 0.00 | 23 | 1017.2 |
| 20260508000034 | 71 | 41 | 2.0 | 7.0 | 0.00 | 0.00 | 0.00 | 26 | 1017.2 |
| 20260507234530 | 71 | 44 | 3.0 | 9.0 | 0.00 | 0.00 | 0.00 | 26 | 1016.9 |
| 20260507233028 | 72 | 58 | 3.0 | 8.0 | 0.00 | 0.00 | 0.00 | 24 | 1017.0 |
| 20260507231528 | 73 | 59 | 3.0 | 9.0 | 0.00 | 0.00 | 0.00 | 24 | 1017.1 |
| 20260507230029 | 73 | 46 | 3.0 | 8.0 | 0.00 | 0.00 | 0.00 | 25 | 1017.2 |
| 20260507221528 | 73 | 49 | 3.0 | 9.0 | 0.00 | 0.00 | 0.00 | 27 | 1017.7 |
| 20260507211541 | 73 | 48 | 2.0 | 6.0 | 0.00 | 0.00 | 0.00 | 31 | 1018.3 |
| 20260507210031 | 72 | 46 | 2.0 | 7.0 | 0.00 | 0.00 | 0.00 | 32 | 1018.5 |
| 20260507204607 | 71 | 52 | 2.0 | 6.0 | 0.00 | 0.00 | 0.00 | 32 | 1018.6 |
| 20260507203028 | 70 | 42 | 2.0 | 6.0 | 0.00 | 0.00 | 0.00 | 33 | 1018.7 |
| 20260507201532 | 69 | 49 | 2.0 | 6.0 | 0.00 | 0.00 | 0.00 | 34 | 1018.7 |
| 20260507200030 | 69 | 48 | 3.0 | 8.0 | 0.00 | 0.00 | 0.00 | 35 | 1018.8 |
| 20260507194528 | 70 | 55 | 2.0 | 7.0 | 0.00 | 0.00 | 0.00 | 36 | 1019.1 |
| 20260507193034 | 69 | 66 | 1.0 | 4.0 | 0.00 | 0.00 | 0.00 | 38 | 1019.5 |
| 20260507191530 | 67 | 47 | 2.0 | 7.0 | 0.00 | 0.00 | 0.00 | 40 | 1019.4 |
| 20260507190033 | 66 | 43 | 2.0 | 5.0 | 0.00 | 0.00 | 0.00 | 43 | 1019.4 |
| 20260507183040 | 66 | 50 | 2.0 | 6.0 | 0.00 | 0.00 | 0.00 | 46 | 1019.8 |
| 20260507181533 | 65 | 42 | 1.0 | 5.0 | 0.00 | 0.00 | 0.00 | 47 | 1020.0 |
| 20260507180030 | 64 | 40 | 2.0 | 6.0 | 0.00 | 0.00 | 0.00 | 49 | 1020.0 |
| 20260507174603 | 63 | 42 | 1.0 | 6.0 | 0.00 | 0.00 | 0.00 | 51 | 1020.3 |
| 20260507173028 | 62 | 42 | 2.0 | 8.0 | 0.00 | 0.00 | 0.00 | 54 | 1020.2 |
| 20260507171535 | 61 | 47 | 2.0 | 5.0 | 0.00 | 0.00 | 0.00 | 56 | 1020.2 |
| 20260507170033 | 61 | 57 | 2.0 | 5.0 | 0.00 | 0.00 | 0.00 | 57 | 1020.4 |
| 20260507163033 | 60 | 51 | 2.0 | 7.0 | 0.00 | 0.00 | 0.00 | 62 | 1020.5 |
| 20260507161531 | 59 | 30 | 2.0 | 6.0 | 0.00 | 0.00 | 0.00 | 65 | 1020.5 |
| 20260507154531 | 57 | 20 | 1.0 | 6.0 | 0.00 | 0.00 | 0.00 | 70 | 1020.8 |
| 20260507153031 | 55 | 8 | 1.0 | 5.0 | 0.00 | 0.00 | 0.00 | 72 | 1021.1 |
| 20260507151532 | 54 | 8 | 1.0 | 4.0 | 0.00 | 0.00 | 0.00 | 74 | 1021.1 |
| 20260507144532 | 52 | 14 | 0.0 | 4.0 | 0.00 | 0.00 | 0.00 | 80 | 1021.0 |
| 20260507143031 | 51 | 357 | 1.0 | 7.0 | 0.00 | 0.00 | 0.00 | 79 | 1020.8 |
| 20260507141530 | 52 | 1 | 2.0 | 8.0 | 0.00 | 0.00 | 0.00 | 79 | 1020.7 |
| 20260507140031 | 51 | 43 | 1.0 | 5.0 | 0.00 | 0.00 | 0.00 | 80 | 1020.5 |
| 20260507134532 | 50 | 43 | 2.0 | 5.0 | 0.00 | 0.00 | 0.00 | 82 | 1020.5 |
| 20260507133103 | 49 | 55 | 2.0 | 5.0 | 0.00 | 0.00 | 0.00 | 83 | 1020.7 |
| 20260507131530 | 49 | 67 | 0.0 | 2.0 | 0.00 | 0.00 | 0.00 | 83 | 1020.8 |
| 20260507130030 | 49 | 67 | 0.0 | 2.0 | 0.00 | 0.00 | 0.00 | 83 | 1020.7 |
| 20260507124530 | 49 | 64 | 0.0 | 4.0 | 0.00 | 0.00 | 0.00 | 83 | 1020.8 |
| 20260507123145 | 49 | 69 | 0.0 | 3.0 | 0.00 | 0.00 | 0.00 | 84 | 1020.7 |
| 20260507121531 | 50 | 43 | 0.0 | 3.0 | 0.00 | 0.00 | 0.00 | 84 | 1020.6 |
| 20260507120029 | 49 | 71 | 0.0 | 3.0 | 0.00 | 0.00 | 0.00 | 85 | 1020.5 |
| 20260507114535 | 50 | 84 | 0.0 | 3.0 | 0.00 | 0.00 | 0.00 | 85 | 1020.4 |
| 20260507113031 | 50 | 73 | 1.0 | 3.0 | 0.00 | 0.00 | 0.00 | 85 | 1020.2 |
| 20260507111531 | 50 | 75 | 1.0 | 3.0 | 0.00 | 0.00 | 0.00 | 83 | 1020.2 |
| 20260507110031 | 51 | 90 | 0.0 | 2.0 | 0.00 | 0.00 | 0.00 | 82 | 1020.2 |
| 20260507104530 | 51 | 74 | 0.0 | 3.0 | 0.00 | 0.00 | 0.00 | 81 | 1020.0 |
| 20260507103031 | 52 | 47 | 0.0 | 5.0 | 0.00 | 0.00 | 0.00 | 80 | 1020.0 |
| 20260507101531 | 52 | 13 | 0.0 | 5.0 | 0.00 | 0.00 | 0.00 | 79 | 1019.9 |
| 20260507100039 | 53 | 350 | 0.0 | 4.0 | 0.00 | 0.00 | 0.00 | 79 | 1019.9 |
| 20260507093031 | 53 | 30 | 0.0 | 3.0 | 0.00 | 0.00 | 0.00 | 80 | 1019.8 |
| 20260507091526 | 53 | 71 | 0.0 | 3.0 | 0.00 | 0.00 | 0.00 | 81 | 1019.8 |
| 20260507083029 | 54 | 22 | 0.0 | 4.0 | 0.00 | 0.00 | 0.00 | 79 | 1019.8 |
| 20260507081531 | 55 | 43 | 1.0 | 4.0 | 0.00 | 0.00 | 0.00 | 78 | 1019.8 |
| 20260507073032 | 54 | 35 | 1.0 | 5.0 | 0.00 | 0.00 | 0.00 | 80 | 1020.0 |
| 20260507071531 | 55 | 30 | 0.0 | 2.0 | 0.00 | 0.00 | 0.00 | 78 | 1020.0 |
| 20260507070029 | 56 | 35 | 0.0 | 2.0 | 0.00 | 0.00 | 0.00 | 77 | 1020.0 |
| 20260507064532 | 56 | 12 | 0.0 | 4.0 | 0.00 | 0.00 | 0.00 | 76 | 1020.1 |
| 20260507063031 | 57 | 28 | 0.0 | 4.0 | 0.00 | 0.00 | 0.00 | 76 | 1020.1 |
| 20260507061529 | 57 | 29 | 1.0 | 6.0 | 0.00 | 0.00 | 0.00 | 76 | 1020.2 |
| 20260507060030 | 57 | 20 | 1.0 | 5.0 | 0.00 | 0.00 | 0.00 | 76 | 1020.3 |
| 20260507053026 | 55 | 44 | 0.0 | 3.0 | 0.00 | 0.00 | 0.00 | 75 | 1020.6 |
| 20260507051529 | 56 | 4 | 0.0 | 1.0 | 0.00 | 0.00 | 0.00 | 72 | 1020.6 |